Hourly Weather Bolshie Lezhni

Today, 3 August, Tuesday

Time Temperature Precipitation Wind Pressure Humidity
00:00 +14°C° 0 mm 4 mps 742 mmHg 92%
01:00 +14°C° 0 mm 4 mps 742 mmHg 94%
02:00 +13°C° 0 mm 3 mps 743 mmHg 95%
03:00 +13°C° 0 mm 3 mps 743 mmHg 95%
04:00 +13°C° 0 mm 3 mps 743 mmHg 95%
05:00 +13°C° 0 mm 3 mps 743 mmHg 95%
06:00 +14°C° 0 mm 4 mps 743 mmHg 85%
07:00 +16°C° 0 mm 5 mps 744 mmHg 75%
08:00 +17°C° 0 mm 5 mps 744 mmHg 64%
09:00 +19°C° 0.1 mm 6 mps 744 mmHg 63%
10:00 +20°C° 0.1 mm 6 mps 744 mmHg 61%
11:00 +20°C° 0.1 mm 6 mps 744 mmHg 60%
12:00 +21°C° 0.1 mm 6 mps 744 mmHg 55%
13:00 +22°C° 0.1 mm 6 mps 744 mmHg 49%
14:00 +23°C° 0.1 mm 6 mps 744 mmHg 44%
15:00 +22°C° 0.1 mm 5 mps 745 mmHg 48%
16:00 +22°C° 0.1 mm 5 mps 745 mmHg 52%
17:00 +21°C° 0.1 mm 5 mps 745 mmHg 56%
18:00 +19°C° 0.2 mm 4 mps 745 mmHg 66%
19:00 +18°C° 0.2 mm 3 mps 746 mmHg 76%
20:00 +16°C° 0.2 mm 2 mps 746 mmHg 85%
21:00 +15°C° 0.1 mm 2 mps 746 mmHg 88%
22:00 +15°C° 0.1 mm 2 mps 747 mmHg 91%
23:00 +14°C° 0.1 mm 2 mps 747 mmHg 94%

Tomorrow, 4 August, Wednesday

Time Temperature Precipitation Wind Pressure Humidity
00:00 +13°C° 0 mm 2 mps 747 mmHg 95%
01:00 +13°C° 0 mm 2 mps 747 mmHg 95%
02:00 +13°C° 0 mm 2 mps 748 mmHg 96%
03:00 +12°C° 0 mm 2 mps 748 mmHg 96%
04:00 +12°C° 0 mm 2 mps 748 mmHg 96%
05:00 +12°C° 0 mm 2 mps 748 mmHg 96%
06:00 +14°C° 0 mm 2 mps 748 mmHg 88%
07:00 +15°C° 0 mm 2 mps 749 mmHg 81%
08:00 +17°C° 0 mm 2 mps 749 mmHg 73%
09:00 +19°C° 0 mm 2 mps 749 mmHg 64%
10:00 +20°C° 0 mm 2 mps 749 mmHg 54%
11:00 +22°C° 0 mm 3 mps 749 mmHg 44%
12:00 +24°C° 0 mm 3 mps 749 mmHg 43%
13:00 +24°C° 0 mm 3 mps 749 mmHg 41%
14:00 +25°C° 0 mm 3 mps 749 mmHg 40%
15:00 +24°C° 0 mm 3 mps 749 mmHg 44%
16:00 +23°C° 0 mm 2 mps 749 mmHg 47%
17:00 +23°C° 0 mm 2 mps 749 mmHg 51%
18:00 +22°C° 0 mm 1 mps 749 mmHg 55%
19:00 +20°C° 0 mm 1 mps 749 mmHg 59%
20:00 +17°C° 0 mm 0 mps 749 mmHg 63%
21:00 +19°C° 0 mm 1 mps 749 mmHg 65%
22:00 +18°C° 0 mm 1 mps 749 mmHg 67%
23:00 +18°C° 0 mm 1 mps 749 mmHg 68%

Day after tomorrow, 5 August, Thursday

Time Temperature Precipitation Wind Pressure Humidity
00:00 +16°C° 0.9 mm 1 mps 749 mmHg 78%
01:00 +15°C° 0.9 mm 1 mps 749 mmHg 87%
02:00 +15°C° 0.9 mm 1 mps 749 mmHg 97%
03:00 +15°C° 2.1 mm 1 mps 749 mmHg 97%
04:00 +15°C° 2.1 mm 2 mps 748 mmHg 98%
05:00 +15°C° 2.1 mm 2 mps 748 mmHg 98%
06:00 +15°C° 1.7 mm 2 mps 748 mmHg 98%
07:00 +14°C° 1.7 mm 3 mps 748 mmHg 98%
08:00 +14°C° 1.7 mm 3 mps 748 mmHg 97%
09:00 +14°C° 0.4 mm 3 mps 748 mmHg 97%
10:00 +14°C° 0.4 mm 3 mps 747 mmHg 96%
11:00 +14°C° 0.4 mm 4 mps 747 mmHg 95%
12:00 +14°C° 0.1 mm 4 mps 747 mmHg 95%
13:00 +14°C° 0.1 mm 4 mps 747 mmHg 95%
14:00 +14°C° 0.1 mm 4 mps 747 mmHg 94%
15:00 +15°C° 0 mm 4 mps 747 mmHg 93%
16:00 +15°C° 0 mm 4 mps 747 mmHg 91%
17:00 +15°C° 0 mm 4 mps 747 mmHg 90%
18:00 +15°C° 0 mm 4 mps 747 mmHg 91%
19:00 +14°C° 0 mm 3 mps 747 mmHg 93%
20:00 +14°C° 0 mm 3 mps 746 mmHg 94%
21:00 +14°C° 0 mm 3 mps 746 mmHg 95%
22:00 +13°C° 0 mm 3 mps 746 mmHg 95%
23:00 +13°C° 0 mm 3 mps 746 mmHg 96%

6 August, Friday

Time Temperature Precipitation Wind Pressure Humidity
00:00 +13°C° 0 mm 4 mps 746 mmHg 95%
01:00 +13°C° 0 mm 4 mps 745 mmHg 95%
02:00 +13°C° 0 mm 4 mps 745 mmHg 94%
03:00 +14°C° 0 mm 4 mps 744 mmHg 94%
04:00 +14°C° 0 mm 5 mps 744 mmHg 95%
05:00 +14°C° 0 mm 5 mps 743 mmHg 95%
06:00 +14°C° 1.9 mm 5 mps 743 mmHg 96%
07:00 +15°C° 1.9 mm 6 mps 742 mmHg 97%
08:00 +15°C° 1.9 mm 6 mps 742 mmHg 97%
09:00 +15°C° 0.4 mm 6 mps 742 mmHg 97%
10:00 +16°C° 0.4 mm 6 mps 742 mmHg 96%
11:00 +16°C° 0.4 mm 5 mps 742 mmHg 96%
12:00 +16°C° 0.2 mm 5 mps 741 mmHg 96%
13:00 +17°C° 0.2 mm 5 mps 741 mmHg 96%
14:00 +17°C° 0.2 mm 5 mps 741 mmHg 96%
15:00 +19°C° 1.5 mm 5 mps 740 mmHg 94%
16:00 +20°C° 1.5 mm 5 mps 740 mmHg 93%
17:00 +20°C° 1.5 mm 4 mps 740 mmHg 92%
18:00 +20°C° 1.2 mm 3 mps 740 mmHg 92%
19:00 +19°C° 1.2 mm 3 mps 740 mmHg 93%
20:00 +18°C° 1.2 mm 2 mps 740 mmHg 94%
21:00 +18°C° 0.1 mm 2 mps 740 mmHg 94%
22:00 +17°C° 0.1 mm 2 mps 741 mmHg 94%
23:00 +17°C° 0.1 mm 2 mps 741 mmHg 95%

7 August, Saturday

Time Temperature Precipitation Wind Pressure Humidity
00:00 +17°C° 0 mm 2 mps 741 mmHg 95%
01:00 +16°C° 0 mm 2 mps 741 mmHg 95%
02:00 +16°C° 0 mm 2 mps 741 mmHg 96%
03:00 +16°C° 0 mm 2 mps 741 mmHg 96%
04:00 +16°C° 0 mm 2 mps 742 mmHg 96%
05:00 +15°C° 0 mm 2 mps 742 mmHg 96%
06:00 +17°C° 0 mm 2 mps 742 mmHg 93%
07:00 +18°C° 0 mm 2 mps 742 mmHg 90%
08:00 +19°C° 0 mm 2 mps 742 mmHg 88%
09:00 +19°C° 0.7 mm 2 mps 743 mmHg 89%
10:00 +20°C° 0.7 mm 1 mps 743 mmHg 91%
11:00 +19°C° 0.7 mm 1 mps 743 mmHg 93%
12:00 +20°C° 0.6 mm 1 mps 743 mmHg 90%
13:00 +20°C° 0.6 mm 2 mps 743 mmHg 86%
14:00 +21°C° 0.6 mm 2 mps 743 mmHg 83%
15:00 +21°C° 0.1 mm 2 mps 743 mmHg 80%
16:00 +21°C° 0.1 mm 2 mps 743 mmHg 78%
17:00 +22°C° 0.1 mm 3 mps 743 mmHg 75%
18:00 +20°C° 0 mm 2 mps 744 mmHg 79%
19:00 +19°C° 0 mm 2 mps 744 mmHg 83%
20:00 +18°C° 0 mm 2 mps 744 mmHg 87%
21:00 +17°C° 0 mm 2 mps 744 mmHg 89%
22:00 +17°C° 0 mm 2 mps 745 mmHg 91%
23:00 +16°C° 0 mm 2 mps 745 mmHg 93%

8 August, Sunday

Time Temperature Precipitation Wind Pressure Humidity
00:00 +16°C° 0 mm 2 mps 745 mmHg 93%
01:00 +16°C° 0 mm 1 mps 745 mmHg 93%
02:00 +16°C° 0 mm 1 mps 746 mmHg 93%
03:00 +16°C° 0 mm 1 mps 746 mmHg 93%
04:00 +16°C° 0 mm 2 mps 746 mmHg 93%
05:00 +16°C° 0 mm 2 mps 746 mmHg 93%
06:00 +17°C° 0 mm 2 mps 747 mmHg 88%
07:00 +18°C° 0 mm 2 mps 747 mmHg 84%
08:00 +19°C° 0 mm 3 mps 747 mmHg 79%
09:00 +21°C° 0 mm 3 mps 747 mmHg 73%
10:00 +22°C° 0 mm 3 mps 747 mmHg 66%
11:00 +24°C° 0 mm 3 mps 748 mmHg 60%
12:00 +25°C° 0 mm 3 mps 748 mmHg 55%
13:00 +26°C° 0 mm 3 mps 748 mmHg 50%
14:00 +27°C° 0 mm 3 mps 748 mmHg 45%
15:00 +27°C° 0 mm 3 mps 748 mmHg 47%
16:00 +27°C° 0 mm 3 mps 749 mmHg 49%
17:00 +27°C° 0 mm 2 mps 749 mmHg 51%
18:00 +25°C° 0 mm 2 mps 749 mmHg 58%
19:00 +23°C° 0 mm 2 mps 749 mmHg 64%
20:00 +21°C° 0 mm 1 mps 750 mmHg 70%
21:00 +20°C° 0 mm 1 mps 750 mmHg 72%
22:00 +20°C° 0 mm 1 mps 750 mmHg 73%
23:00 +19°C° 0 mm 1 mps 750 mmHg 74%
Show more

We Need Your Consent

Meteoprog and our Service Providers may store and access personal data such as cookies, device identifiers or other similar technologies on your device and process such data to personalise content and ads, as well as provide social media features and to analyse the traffic.

  • Store and/or access information on your device

    Cookies, device identifiers or other information can be stored or accessed on your device for the purposes indicated above.

  • Personalised ads and content, ad and content measurement, audience insights, and products development

    Ads and content can be personalised based on a profile. More data can be added to better personalise ads and content. Ad and content performance can be measured. Insights about the audience who saw the ads and content can be derived. Such data can be used to develop or improve user’s experience, systems and software.

By clicking ‘I Agree’ you will allow the use of indicated cookies, device identifiers, web beacons or other similar technologies. Your settings can be changed in the browser on your device.

For certain purposes, legitimate interests may be relied on, rather than consent. You can read more about this in our Privacy and Cookie Policy.